GRIVA EGGP-EGNS

Flight info

Callsign GRIVA
Flight time 0h 27m
Altitude 18000
Route WAL M146 LUSOD DCT IOM
Aircraft TBM8/L-SDFGRWY/S

Departure

Time 2026-04-08 21:59
Airport Liverpool John Lennon Airport (EGGP)

Arrival

Time 2026-04-08 22:27
Airport Isle of Man Airport (EGNS)
Time Latitude Longitude Altitude Speed Heading
2026-04-08 21:36 53.33719 -2.83976 84 ft 0 kts 87°
2026-04-08 21:56 53.33719 -2.83972 84 ft 0 kts 86°
2026-04-08 21:57 53.33719 -2.83948 86 ft 2 kts 100°
2026-04-08 21:57 53.33665 -2.83932 84 ft 14 kts 175°
2026-04-08 21:57 53.33579 -2.83893 85 ft 11 kts 95°
2026-04-08 21:57 53.33586 -2.83713 84 ft 19 kts 87°
2026-04-08 21:58 53.33503 -2.83626 84 ft 18 kts 177°
2026-04-08 21:58 53.33418 -2.83656 84 ft 6 kts 262°
2026-04-08 21:58 53.33423 -2.83695 84 ft 6 kts 272°
2026-04-08 21:58 53.33415 -2.83874 85 ft 34 kts 265°
2026-04-08 21:59 53.33381 -2.84603 87 ft 90 kts 266°
2026-04-08 21:59 53.33336 -2.85806 280 ft 112 kts 270°
2026-04-08 21:59 53.33326 -2.87209 590 ft 131 kts 274°
2026-04-08 21:59 53.33360 -2.88777 1049 ft 139 kts 274°
2026-04-08 22:00 53.33258 -2.90379 1681 ft 136 kts 262°
2026-04-08 22:00 53.33160 -2.91907 2229 ft 136 kts 278°
2026-04-08 22:00 53.33481 -2.93444 2673 ft 145 kts 298°
2026-04-08 22:00 53.33955 -2.94984 3151 ft 151 kts 297°
2026-04-08 22:01 53.34430 -2.96596 3628 ft 157 kts 298°
2026-04-08 22:01 53.34912 -2.98270 4100 ft 163 kts 296°
2026-04-08 22:01 53.35319 -3.00056 4584 ft 166 kts 287°
2026-04-08 22:01 53.35714 -3.01893 5056 ft 169 kts 297°
2026-04-08 22:02 53.36310 -3.03539 5705 ft 161 kts 305°
2026-04-08 22:02 53.36882 -3.05145 6212 ft 164 kts 296°
2026-04-08 22:02 53.37385 -3.06917 6579 ft 172 kts 297°
2026-04-08 22:02 53.37926 -3.08691 7140 ft 170 kts 299°
2026-04-08 22:03 53.38506 -3.10434 7621 ft 172 kts 301°
2026-04-08 22:03 53.39128 -3.12156 8108 ft 174 kts 303°
2026-04-08 22:03 53.39792 -3.13853 8548 ft 175 kts 306°
2026-04-08 22:03 53.40504 -3.15521 8967 ft 176 kts 308°
2026-04-08 22:04 53.41255 -3.17153 9378 ft 177 kts 309°
2026-04-08 22:04 53.42046 -3.18753 9787 ft 178 kts 311°
2026-04-08 22:04 53.42915 -3.20242 10193 ft 179 kts 324°
2026-04-08 22:04 53.43910 -3.21528 10575 ft 181 kts 320°
2026-04-08 22:05 53.44834 -3.22977 10977 ft 182 kts 316°
2026-04-08 22:05 53.45713 -3.24478 11366 ft 183 kts 315°
2026-04-08 22:05 53.46609 -3.26017 11754 ft 184 kts 315°
2026-04-08 22:05 53.47510 -3.27558 12138 ft 185 kts 315°
2026-04-08 22:06 53.48418 -3.29107 12518 ft 187 kts 315°
2026-04-08 22:06 53.49329 -3.30666 12894 ft 188 kts 315°
2026-04-08 22:06 53.50245 -3.32234 13266 ft 189 kts 315°
2026-04-08 22:06 53.50860 -3.33292 13540 ft 190 kts 315°
2026-04-08 22:07 53.51786 -3.34878 13944 ft 191 kts 315°
2026-04-08 22:07 53.53024 -3.36997 14460 ft 192 kts 315°
2026-04-08 22:07 53.53965 -3.38610 14846 ft 194 kts 315°
2026-04-08 22:07 53.54603 -3.39707 15109 ft 195 kts 315°
2026-04-08 22:08 53.55542 -3.41326 15504 ft 196 kts 315°
2026-04-08 22:08 53.56499 -3.42966 15896 ft 197 kts 315°
2026-04-08 22:08 53.57466 -3.44628 16204 ft 203 kts 315°
2026-04-08 22:08 53.58418 -3.46548 16206 ft 223 kts 306°
2026-04-08 22:09 53.59342 -3.48762 16215 ft 238 kts 307°
2026-04-08 22:09 53.60392 -3.50974 16220 ft 250 kts 311°
2026-04-08 22:09 53.61495 -3.53320 16218 ft 259 kts 308°
2026-04-08 22:09 53.62560 -3.55821 16207 ft 266 kts 303°
2026-04-08 22:10 53.63511 -3.58486 16206 ft 270 kts 303°
2026-04-08 22:10 53.64543 -3.61153 16209 ft 274 kts 306°
2026-04-08 22:10 53.65659 -3.63776 16208 ft 276 kts 308°
2026-04-08 22:10 53.66789 -3.66407 16205 ft 278 kts 307°
2026-04-08 22:11 53.67902 -3.69084 16204 ft 279 kts 306°
2026-04-08 22:11 53.68991 -3.71812 16205 ft 280 kts 302°
2026-04-08 22:11 53.70034 -3.74545 16207 ft 281 kts 304°
2026-04-08 22:11 53.71187 -3.77211 16208 ft 281 kts 307°
2026-04-08 22:12 53.72352 -3.79879 16208 ft 282 kts 306°
2026-04-08 22:12 53.73477 -3.82597 16208 ft 282 kts 305°
2026-04-08 22:12 53.74600 -3.85326 16209 ft 282 kts 305°
2026-04-08 22:12 53.75731 -3.88045 16209 ft 283 kts 305°
2026-04-08 22:13 53.76859 -3.90760 16209 ft 283 kts 305°
2026-04-08 22:13 53.77992 -3.93493 16209 ft 282 kts 305°
2026-04-08 22:13 53.79121 -3.96221 16209 ft 282 kts 305°
2026-04-08 22:13 53.80247 -3.98945 16209 ft 282 kts 305°
2026-04-08 22:14 53.81355 -4.01632 16209 ft 282 kts 305°
2026-04-08 22:14 53.82479 -4.04356 16209 ft 282 kts 305°
2026-04-08 22:14 53.83604 -4.07085 16209 ft 282 kts 305°
2026-04-08 22:14 53.84727 -4.09813 16209 ft 282 kts 305°
2026-04-08 22:15 53.85851 -4.12547 16209 ft 282 kts 305°
2026-04-08 22:15 53.86969 -4.15255 16080 ft 278 kts 306°
2026-04-08 22:15 53.88089 -4.17912 15364 ft 280 kts 305°
2026-04-08 22:15 53.89182 -4.20641 15036 ft 278 kts 304°
2026-04-08 22:16 53.90259 -4.23284 14536 ft 258 kts 306°
2026-04-08 22:16 53.91255 -4.25647 14026 ft 235 kts 305°
2026-04-08 22:16 53.92131 -4.27844 13526 ft 221 kts 304°
2026-04-08 22:16 53.92948 -4.30027 13000 ft 212 kts 295°
2026-04-08 22:17 53.93154 -4.32438 12479 ft 208 kts 262°
2026-04-08 22:17 53.92525 -4.34568 11967 ft 207 kts 227°
2026-04-08 22:17 53.91274 -4.35713 11451 ft 207 kts 192°
2026-04-08 22:17 53.89868 -4.35432 10934 ft 206 kts 156°
2026-04-08 22:18 53.88808 -4.33860 10431 ft 204 kts 125°
2026-04-08 22:18 53.88123 -4.31773 9925 ft 201 kts 107°
2026-04-08 22:18 53.88124 -4.29458 9412 ft 197 kts 70°
2026-04-08 22:18 53.88920 -4.27644 8900 ft 192 kts 33°
2026-04-08 22:19 53.90154 -4.27044 8396 ft 187 kts 356°
2026-04-08 22:19 53.91387 -4.27671 7897 ft 185 kts 336°
2026-04-08 22:19 53.92515 -4.28679 7393 ft 182 kts 323°
2026-04-08 22:19 53.93446 -4.30121 6896 ft 180 kts 313°
2026-04-08 22:20 53.94192 -4.31814 6396 ft 178 kts 309°
2026-04-08 22:20 53.95181 -4.33042 5904 ft 176 kts 333°
2026-04-08 22:20 53.96259 -4.34012 5399 ft 175 kts 330°
2026-04-08 22:20 53.97318 -4.34957 4914 ft 173 kts 334°
2026-04-08 22:21 53.98421 -4.35825 4409 ft 172 kts 335°
2026-04-08 22:21 53.99496 -4.36653 3914 ft 170 kts 335°
2026-04-08 22:21 54.00572 -4.37482 3416 ft 169 kts 335°
2026-04-08 22:21 54.01638 -4.38303 2919 ft 168 kts 335°
2026-04-08 22:22 54.02693 -4.39105 2417 ft 161 kts 335°
2026-04-08 22:22 54.03666 -4.39843 2010 ft 144 kts 335°
2026-04-08 22:22 54.04505 -4.40490 1989 ft 123 kts 334°
2026-04-08 22:22 54.05331 -4.41158 1996 ft 144 kts 333°
2026-04-08 22:23 54.06306 -4.41918 2010 ft 161 kts 335°
2026-04-08 22:23 54.07366 -4.42727 2012 ft 171 kts 335°
2026-04-08 22:23 54.08462 -4.43559 2012 ft 176 kts 335°
2026-04-08 22:23 54.09533 -4.44586 2008 ft 178 kts 315°
2026-04-08 22:24 54.10038 -4.46400 2005 ft 166 kts 277°
2026-04-08 22:24 54.10065 -4.48314 1808 ft 160 kts 267°
2026-04-08 22:24 54.09899 -4.50137 1419 ft 150 kts 260°
2026-04-08 22:24 54.09683 -4.51830 1004 ft 141 kts 259°
2026-04-08 22:25 54.09440 -4.53489 859 ft 148 kts 257°
2026-04-08 22:25 54.09220 -4.55193 774 ft 139 kts 261°
2026-04-08 22:25 54.09061 -4.56638 551 ft 114 kts 258°
2026-04-08 22:25 54.08885 -4.57962 429 ft 121 kts 259°
2026-04-08 22:26 54.08729 -4.59186 317 ft 95 kts 258°
2026-04-08 22:26 54.08585 -4.60310 173 ft 100 kts 258°
2026-04-08 22:26 54.08443 -4.61465 47 ft 93 kts 259°
2026-04-08 22:26 54.08332 -4.62367 37 ft 65 kts 258°
2026-04-08 22:27 54.08268 -4.62887 40 ft 14 kts 262°
2026-04-08 22:27 54.08269 -4.62908 40 ft 0 kts 299°
2026-04-08 22:27 54.08267 -4.62902 40 ft 1 kts 276°
2026-04-08 22:28 54.08335 -4.62956 38 ft 4 kts 299°
2026-04-08 22:28 54.08382 -4.62986 37 ft 13 kts 12°
2026-04-08 22:28 54.08500 -4.63010 38 ft 21 kts 349°
2026-04-08 22:28 54.08572 -4.63040 41 ft 3 kts 337°
2026-04-08 22:29 54.08605 -4.63091 40 ft 10 kts 314°
2026-04-08 22:29 54.08630 -4.63175 40 ft 9 kts 224°
2026-04-08 22:29 54.08595 -4.63214 40 ft 3 kts 301°
2026-04-08 22:29 54.08602 -4.63219 40 ft 0 kts 19°